Location: Hope
(40.9110°N, 74.9680°W)
Time: 03:35:21
(UTC-04:00)

ISS - Visible Passes

Search period start: 21 September 2018 00:00
Search period end: 01 October 2018 00:00
Orbit: 403 x 408 km, 51.6° (Epoch: 21 September)

Date Brightness Start Highest point End Pass type
(mag) Time Alt. Az. Time Alt. Az. Time Alt. Az.
21 Sep -2.5 19:52:17 10° S 19:54:58 23° SE 19:56:04 19° ESE visible
21 Sep -0.8 21:28:10 10° WSW 21:28:48 14° W 21:28:48 14° W visible
22 Sep -3.7 20:36:07 10° WSW 20:39:25 72° NW 20:39:44 65° NNE visible
23 Sep -3.8 19:44:20 10° SW 19:47:35 59° SE 19:50:28 13° ENE visible
23 Sep -1.1 21:21:35 10° WNW 21:23:10 19° NW 21:23:10 19° NW visible
24 Sep -2.3 20:29:13 10° W 20:32:16 34° NNW 20:33:42 23° NNE visible
25 Sep -3.2 19:37:03 10° WSW 19:40:18 57° NNW 19:43:34 10° NE visible
25 Sep -0.9 21:15:10 10° NW 21:16:46 16° NNW 21:16:46 16° NNW visible
26 Sep -1.5 20:22:38 10° WNW 20:25:12 21° NNW 20:27:01 14° NNE visible
27 Sep -2.0 19:30:11 10° W 19:33:07 29° NNW 19:36:03 10° NE visible
27 Sep -0.8 21:08:44 10° NW 21:09:52 13° NNW 21:09:52 13° NNW visible
28 Sep -1.2 20:16:11 10° NW 20:18:12 15° NNW 20:19:58 11° NNE visible
29 Sep -1.4 19:23:36 10° WNW 19:26:01 19° NNW 19:28:26 10° NNE visible
29 Sep -0.8 21:01:53 10° NNW 21:02:41 12° NNW 21:02:41 12° NNW visible
30 Sep -1.2 20:09:36 10° NNW 20:11:14 13° N 20:12:41 11° NNE visible
